ORBCOMM FM 25

Satellite information

Favourite Embed

Satellite Type and Status

PAYLOADIN ORBIT

Key statistics

Satellite ORBCOMM FM 25 at a glance.

Uptime

9723

Days in orbit

Revolutions

≈ 14.4

Per day

Orbit

LEO

Low Earth Orbit

Inclination

45.0

Latest

Satellite identification and parameters

Extended collection of information and parameters for ORBCOMM FM 25.

Object identification

Identified? True

Debris? False

Object name: ORBCOMM FM 25

International designator: 1998-053E

Object number (NORAD): 25479

Object ID (CCSDS): 25479

Country: ORBITAL TELECOMMUNICATIONS SATELLITE (GLOBALSTAR) (ORB)

Current information (Y/N): Y

RCS size: MEDIUM

Orbital parameters

Period: 100.141 minutes

Inclination: 45.0063 deg

SMA: 7143.324 km

Apoapsis: 768.574 km

Periapsis: 761.804 km

RAAN: 103.237 deg

Eccentricy: 0.0004739

Argument of periapsis: 7.9767 deg

Mean anomaly: 352.1155 deg

Mean motion: 14.37978031 rev/day

Mean motion (dot): 0.00001695 rev/day2

B* drag term: 0.00060204 1/REarth

Two-line elements (TLE)

Creation date: May 7, 2025, 3:14 a.m.

Reference frame: TEME

Reference center: EARTH

Epoch: May 6, 2025, 8:56 p.m. UTC

TLE line 0: 0 ORBCOMM FM 25

TLE line 1: 1 25479U 98053E 25126.87248259 .00001695 00000-0 60204-3 0 9999

TLE line 2: 2 25479 45.0063 103.2370 0004739 7.9767 352.1155 14.37978031391796

Live tracking on map

Real-time ground track for satellite ORBCOMM FM 25.

In-orbit conjunctions

There are no conjunctions computed for ORBCOMM FM 25, at the moment. Check back to stay up to date, as we update our databases every day.

Go to all conjunctions

Associated space launch

ORBCOMM FM 25 was lifted into orbit during the mission ‘Pegasus XL HAPS | Orbcomm-C1 - C8’, on board a Pegasus XL HAPS space rocket.

The launch took place on Sept. 23, 1998, 5:06 a.m. from Wallops Flight Facility.

For more information about the launch, click the button.

Launch to space Pegasus XL HAPS | Orbcomm-C1 - C8
Pegasus XL HAPS | Orbcomm-C1 - C8

Agency: N/A

Status: Launch Successful

Launch date: Sept. 23, 1998, 5:06 a.m. UTC

Rocket: Pegasus XL HAPS

Launch pad: Wallops Flight Facility

Location: Air launch to orbit

...

Latest news about this satellite

There are no fresh news available about this satellite. Check back as we update our databases every day.


Newsletter sign-up

Weekly statistics, charts and insights to help you stay on top of the space industry.